Home > Weather > Kuching > Past weeks

Flag for Malaysia Weather for the Past 2 Weeks in Kuching, Malaysia

Now
81 °F

Partly cloudy.


Feels Like: 87 °F
Forecast: 76 / 84 °F
Wind: 7 mph from North

Location: Kuching Airport

Current Time: Feb 8, 2016 at 7:23:04 PM

Latest Report: Feb 8, 2016 at 7:00 PM


Visibility: N/A

Pressure: 29.77 "Hg

Humidity: 89%

Dew point: 77 °F

Location of KuchingLocation

Historic Weather in Kuching — Graph

°F

Kuching Temperature Yesterday

Maximum temperature yesterday: 84 °F (at 2:30 PM)
Minimum temperature yesterday: 75 °F (at 5:00 AM)
Average temperature yesterday: 79 °F

High & Low Weather Summary for the Past Weeks

 TemperatureHumidityPressure
High90 °F (Jan 27, 12:00 PM)100% (Jan 25, 5:00 AM)29.95 "Hg (Jan 25, 5:00 AM)
Low75 °F (Jan 25, 2:30 AM)63% (Jan 27, 12:00 PM)29.71 "Hg (Feb 5, 3:00 PM)
Average80 °F89%29.83 "Hg
* Reported Jan 24 6:00 PM — Feb 8 6:00 PM, Kuching, Weather by CustomWeather, © 2016

Note: Actual official high and low records may vary slightly from our data, if they occured in-between our weather recording intervals... More about our weather records

Advertising

Kuching Weather History for the Previous 24 Hours

 ConditionsComfort  
Time TempWeatherWind HumidityBarometerVisibility
6:00 PM
Mon, Feb 8
79 °FBroken clouds.5 mph94%29.77 "HgN/A
5:30 PM81 °FBroken clouds.8 mph89%29.74 "HgN/A
5:00 PM81 °FPartly sunny.8 mph89%29.74 "Hg5 mi
4:30 PM81 °FPartly sunny.9 mph89%29.74 "Hg5 mi
4:00 PM81 °FLight rain. Partly sunny.9 mph89%29.74 "Hg5 mi
3:30 PM81 °FLight rain. Mostly cloudy.7 mph89%29.74 "Hg5 mi
3:00 PM79 °FLight rain. Mostly cloudy.7 mph94%29.77 "Hg4 mi
2:30 PM81 °FLight rain. Mostly cloudy.5 mph89%29.77 "Hg3 mi
2:00 PM79 °FLight rain. Mostly cloudy.7 mph94%29.80 "Hg4 mi
1:30 PM79 °FLight rain. More clouds than sun.8 mph94%29.80 "Hg4 mi
1:00 PM79 °FLight rain. More clouds than sun.6 mph94%29.83 "Hg4 mi
12:30 PM79 °FRain. More clouds than sun.6 mph94%29.83 "Hg1 mi
12:00 PM79 °FRain. More clouds than sun.6 mph94%29.86 "Hg1 mi
11:30 AM77 °FLight rain. More clouds than sun.8 mph100%29.86 "Hg2 mi
11:00 AM77 °FRain. More clouds than sun.8 mph100%29.89 "Hg1 mi
10:30 AM79 °FRain. More clouds than sun.7 mph94%29.89 "Hg1 mi
10:00 AM77 °FRain. More clouds than sun.2 mph100%29.89 "Hg1 mi
9:30 AM77 °FRain. Broken clouds.No wind100%29.89 "Hg1 mi
9:00 AM77 °FLight rain. Broken clouds.2 mph100%29.86 "Hg3 mi
8:30 AM77 °FLight rain. More clouds than sun.3 mph100%29.86 "Hg2 mi
8:00 AM77 °FRain. More clouds than sun.3 mph100%29.86 "Hg1 mi
7:30 AM77 °FLight rain. Broken clouds.1 mph94%29.83 "Hg2 mi
7:00 AM77 °FLight rain. Broken clouds.1 mph94%29.83 "Hg2 mi
6:30 AM77 °FRain. Partly cloudy.7 mph94%29.83 "Hg2 mi
6:00 AM77 °FRain. Partly cloudy.9 mph94%29.83 "Hg4 mi
5:30 AM79 °FPartly cloudy.3 mph89%29.83 "HgN/A
5:00 AM79 °FPartly cloudy.3 mph89%29.80 "HgN/A
4:30 AM79 °FPartly cloudy.5 mph89%29.80 "HgN/A
4:00 AM79 °FLight rain. Partly cloudy.6 mph89%29.80 "HgN/A
3:30 AM79 °FLight rain. Partly cloudy.5 mph89%29.83 "HgN/A
3:00 AM79 °FLight rain. Partly cloudy.8 mph89%29.83 "HgN/A
2:30 AM79 °FLight rain. Partly cloudy.7 mph89%29.83 "Hg5 mi
2:00 AM79 °FLight rain. Partly cloudy.8 mph89%29.86 "Hg4 mi
1:30 AM77 °FLight rain. Mostly cloudy.5 mph94%29.86 "Hg2 mi
1:00 AM77 °FLight rain. Mostly cloudy.No wind94%29.86 "Hg1 mi
12:30 AM77 °FRain. Mostly cloudy.3 mph94%29.89 "Hg1 mi
12:00 AM77 °FRain. Mostly cloudy.6 mph94%29.89 "Hg2 mi
11:30 PM
Sun, Feb 7
77 °FLight rain. Passing clouds.7 mph100%29.89 "Hg3 mi
11:00 PM77 °FLight rain. Passing clouds.5 mph94%29.89 "Hg3 mi
10:30 PM77 °FLight rain. Partly cloudy.6 mph94%29.89 "HgN/A
10:00 PM77 °FLight rain. Partly cloudy.7 mph94%29.89 "Hg5 mi
9:30 PM77 °FLight rain. Partly cloudy.8 mph100%29.89 "Hg5 mi
9:00 PM77 °FLight rain. Partly cloudy.3 mph100%29.86 "Hg4 mi
8:30 PM77 °FLight rain. Partly cloudy.10 mph100%29.83 "Hg4 mi
8:00 PM81 °FLight rain. Partly cloudy.6 mph84%29.83 "HgN/A
7:30 PM79 °FLight rain. Partly cloudy.6 mph89%29.83 "HgN/A
7:00 PM79 °FLight rain. Partly cloudy.10 mph89%29.80 "HgN/A
Weather by CustomWeather, © 2016

See weather overviewHow to use our weather pages